GW5460 Weather Reports


Display with metric or nautical units.
time (UTC)temp
F
wind
direction
speed
MPH
gust
MPH
rain 1hr
in
rain 24hr
in
rain mn
in
humidity
%
barometer
mb
20260505124518 52 128 0.0 2.0 0.00 0.00 0.00 96 1014.9
20260505123539 52 107 1.0 2.0 0.00 0.00 0.00 96 1014.8
20260505122518 52 216 0.0 2.0 0.00 0.00 0.00 96 1014.9
20260505121519 52 182 0.0 1.0 0.00 0.00 0.00 95 1014.9
20260505120519 52 167 0.0 1.0 0.00 0.00 0.00 95 1014.8
20260505115519 52 207 0.0 2.0 0.00 0.00 0.00 96 1014.8
20260505114539 51 129 0.0 2.0 0.00 0.00 0.00 96 1014.8
20260505113519 51 199 0.0 1.0 0.00 0.00 0.00 97 1014.7
20260505112526 51 218 0.0 1.0 0.00 0.00 0.00 98 1014.7
20260505111523 50 202 0.0 2.0 0.00 0.00 0.00 98 1014.6
20260505110517 50 223 0.0 2.0 0.00 0.00 0.00 98 1014.5
20260505101518 50 164 0.0 2.0 0.00 0.00 0.00 97 1014.2
20260505100518 50 177 0.0 2.0 0.00 0.00 0.00 97 1014.2
20260505095520 50 197 0.0 2.0 0.00 0.00 0.00 97 1014.2
20260505094518 50 211 1.0 2.0 0.00 0.00 0.00 97 1014.1
20260505093518 50 215 0.0 2.0 0.00 0.00 0.00 96 1014.0
20260505092538 51 197 1.0 2.0 0.00 0.00 0.00 96 1014.0
20260505091518 51 165 0.0 2.0 0.00 0.00 0.00 96 1013.9
20260505090538 51 210 0.0 1.0 0.00 0.00 0.00 95 1013.8
20260505085537 51 194 0.0 2.0 0.00 0.00 0.00 95 1013.7
20260505084518 51 142 1.0 3.0 0.00 0.00 0.00 95 1013.7
20260505083516 52 178 1.0 3.0 0.00 0.00 0.00 94 1013.8
20260505082517 52 167 0.0 2.0 0.00 0.00 0.00 93 1013.8
20260505081518 52 210 1.0 2.0 0.00 0.00 0.00 92 1013.7
20260505080538 53 184 0.0 2.0 0.00 0.00 0.00 92 1013.6
20260505075517 53 181 1.0 2.0 0.00 0.00 0.00 92 1013.5
20260505074517 53 222 0.0 2.0 0.00 0.00 0.00 91 1013.4
20260505073518 53 159 1.0 3.0 0.00 0.00 0.00 90 1013.3
20260505072539 54 197 1.0 2.0 0.00 0.00 0.00 90 1013.2
20260505071518 54 156 1.0 4.0 0.00 0.00 0.00 89 1013.1
20260505070519 55 104 3.0 6.0 0.00 0.00 0.00 89 1013.1
20260505065600 55 136 1.0 3.0 0.00 0.00 0.00 88 1012.9
20260505064518 55 164 1.0 3.0 0.00 0.00 0.00 88 1012.8
20260505063518 55 162 1.0 3.0 0.00 0.00 0.00 87 1012.6
20260505062538 56 120 3.0 5.0 0.00 0.00 0.00 87 1012.5
20260505061538 56 195 2.0 4.0 0.00 0.00 0.00 87 1012.5
20260505060536 56 127 3.0 5.0 0.00 0.00 0.00 87 1012.5
20260505055517 56 128 3.0 5.0 0.00 0.00 0.00 86 1012.4
20260505054516 57 132 2.0 5.0 0.00 0.00 0.00 86 1012.3
20260505053557 57 152 2.0 7.0 0.00 0.00 0.00 85 1012.3
20260505052516 58 157 2.0 5.0 0.00 0.00 0.00 84 1012.2
20260505051517 59 153 2.0 6.0 0.00 0.00 0.00 83 1012.2
20260505050517 59 130 3.0 7.0 0.00 0.00 0.00 82 1012.1
20260505041517 63 183 0.0 1.0 0.00 0.00 0.00 75 1011.3
20260505040519 64 197 0.0 2.0 0.00 0.00 0.00 73 1011.1
20260505035559 64 166 0.0 1.0 0.00 0.00 0.00 72 1010.9
20260505034519 65 215 1.0 2.0 0.00 0.00 0.00 71 1010.8
20260505033539 66 221 0.0 2.0 0.00 0.00 0.00 70 1010.7
20260505032520 66 178 1.0 3.0 0.00 0.00 0.00 69 1010.7
20260505031519 67 212 1.0 4.0 0.00 0.00 0.00 69 1010.6
20260505030517 67 218 1.0 4.0 0.00 0.00 0.00 69 1010.4
20260505025539 68 205 2.0 5.0 0.00 0.00 0.00 70 1010.3
20260505024539 68 213 1.0 4.0 0.00 0.00 0.00 70 1010.3
20260505023538 69 161 1.0 5.0 0.00 0.00 0.00 69 1010.3
20260505022518 69 186 2.0 6.0 0.00 0.00 0.00 68 1010.3
20260505021517 70 178 2.0 6.0 0.00 0.00 0.00 68 1010.2
20260505020517 71 186 2.0 5.0 0.00 0.00 0.00 68 1010.1
20260505015517 71 189 2.0 4.0 0.00 0.00 0.00 68 1010.1
20260505014518 71 173 1.0 3.0 0.00 0.00 0.00 68 1010.1
20260505013518 72 188 2.0 4.0 0.00 0.00 0.00 67 1010.2
20260505012519 72 217 1.0 4.0 0.00 0.00 0.00 66 1010.2
20260505011519 72 217 2.0 5.0 0.00 0.00 0.00 66 1010.4
20260505010559 72 193 2.0 5.0 0.00 0.00 0.00 66 1010.5
20260505005518 72 188 2.0 4.0 0.00 0.00 0.00 66 1010.4
20260505004518 72 217 1.0 3.0 0.00 0.00 0.00 66 1010.5
20260505003519 72 141 2.0 6.0 0.00 0.00 0.00 65 1010.6
20260505002518 72 209 2.0 5.0 0.00 0.00 0.00 65 1010.6
20260505001519 73 247 1.0 3.0 0.00 0.00 0.00 65 1010.6
20260505000519 73 190 3.0 6.0 0.00 0.00 0.00 63 1010.7
20260504235516 73 173 2.0 6.0 0.00 0.00 0.00 63 1010.8
20260504234518 73 129 2.0 8.0 0.00 0.00 0.00 63 1010.9
20260504233517 73 163 3.0 10.0 0.00 0.00 0.00 63 1011.0
20260504232517 73 107 4.0 9.0 0.00 0.00 0.00 64 1011.0
20260504231537 72 126 3.0 11.0 0.00 0.00 0.00 63 1011.1
20260504230517 72 111 5.0 12.0 0.00 0.00 0.00 64 1011.1
20260504225517 72 115 3.0 8.0 0.00 0.00 0.00 64 1011.3
20260504224518 72 134 3.0 7.0 0.00 0.00 0.00 64 1011.4
20260504223519 72 120 3.0 7.0 0.00 0.00 0.00 63 1011.5
20260504222518 71 104 4.0 10.0 0.00 0.00 0.00 64 1011.5
20260504221518 71 128 4.0 10.0 0.00 0.00 0.00 65 1011.7
20260504220520 72 130 4.0 12.0 0.00 0.00 0.00 64 1011.8
20260504215518 71 135 3.0 8.0 0.00 0.00 0.00 64 1011.9
20260504214519 71 186 3.0 7.0 0.00 0.00 0.00 63 1012.0
20260504213519 70 162 3.0 9.0 0.00 0.00 0.00 66 1012.1
20260504212519 70 97 3.0 11.0 0.00 0.00 0.00 67 1012.2
20260504211519 70 213 1.0 5.0 0.00 0.00 0.00 67 1012.4
20260504210517 69 178 2.0 6.0 0.00 0.00 0.00 66 1012.6
20260504205520 68 105 2.0 8.0 0.00 0.00 0.00 69 1012.7
20260504204517 68 130 3.0 8.0 0.00 0.00 0.00 67 1012.8
20260504203518 66 111 3.0 9.0 0.00 0.00 0.00 70 1012.9
20260504202517 66 107 3.0 7.0 0.00 0.00 0.00 70 1013.1
20260504201517 65 122 3.0 7.0 0.00 0.00 0.00 71 1013.2
20260504200519 66 110 2.0 9.0 0.00 0.00 0.00 71 1013.4
20260504195518 64 131 1.0 6.0 0.00 0.00 0.00 73 1013.4
20260504194518 63 136 2.0 5.0 0.00 0.00 0.00 75 1013.4
20260504193538 62 131 3.0 7.0 0.00 0.00 0.00 76 1013.4
20260504192518 61 176 3.0 6.0 0.00 0.00 0.00 77 1013.5
20260504191520 60 123 4.0 9.0 0.00 0.00 0.00 78 1013.6
20260504190519 60 148 3.0 6.0 0.00 0.00 0.00 79 1013.6
20260504185518 59 189 2.0 6.0 0.00 0.00 0.00 81 1013.6
20260504184518 59 161 3.0 8.0 0.00 0.00 0.00 82 1013.7
20260504183519 59 161 3.0 7.0 0.00 0.00 0.00 83 1013.7
20260504182519 58 156 2.0 7.0 0.00 0.00 0.00 83 1013.7
20260504181540 58 155 2.0 7.0 0.00 0.00 0.00 84 1013.6
20260504180516 58 196 2.0 6.0 0.00 0.00 0.00 84 1013.7
20260504175519 58 192 2.0 5.0 0.00 0.00 0.00 85 1013.6
20260504174539 57 177 2.0 4.0 0.00 0.00 0.00 85 1013.6
20260504173519 57 162 2.0 6.0 0.00 0.00 0.00 86 1013.6
20260504172520 57 188 2.0 6.0 0.00 0.00 0.00 86 1013.6
20260504171518 56 172 2.0 4.0 0.00 0.00 0.00 87 1013.6
20260504170520 56 179 2.0 5.0 0.00 0.00 0.00 87 1013.5
20260504150517 54 219 2.0 4.0 0.00 0.00 0.00 91 1013.1
20260504140518 53 170 2.0 3.0 0.00 0.00 0.00 94 1012.4
20260504130520 52 187 1.0 3.0 0.00 0.00 0.00 94 1011.4